Regional Weather Roundup
Issued by NWS Newport/Morehead, NC

Current Version | Previous Version | Graphics & Text | Print | Product List | Glossary Off
Versions: 1 2 3 4 5 6 7 8 9 10 11 12 13 14 15 16 17 18 19 20 21 22 23 24 25 26 27 28 29 30 31 32 33 34 35 36 37 38 39 40 41 42 43 44 45 46 47 48 49 50

000
ASUS42 KMHX 160213
RWRMHX
WEATHER ROUNDUP FOR EASTERN NORTH CAROLINA
NATIONAL WEATHER SERVICE NEWPORT/MOREHEAD CITY NC
900 PM EST FRI DEC 15 2017

NOTE: "FAIR" INDICATES FEW OR NO CLOUDS BELOW 12,000 FEET
WITH NO SIGNIFICANT WEATHER AND/OR OBSTRUCTIONS TO VISIBILITY

NCZ015>017-031-032-045>047-102-103-160300-
NORTH COAST

CITY           SKY/WX    TMP DP  RH WIND       PRES   REMARKS
EDENTON        CLEAR     40  30  65 NW7       30.05R
ELIZABETH CITY CLEAR     37  29  72 W10       30.03R
KITTY HAWK     CLOUDY    40  29  65 NW5G16    30.00R
MANTEO         PTCLDY    41  30  64 NW12G22   30.02R

$$

NCZ045>047-081-094-103-104-160300-
CENTRAL COAST

CITY           SKY/WX    TMP DP  RH WIND       PRES   REMARKS
FRISCO         CLOUDY    46  34  62 NW15G25   30.00R

$$

NCZ095-097-098-100-101-160300-
SOUTHERN COAST

CITY           SKY/WX    TMP DP  RH WIND       PRES   REMARKS
BEAUFORT       CLOUDY    48  36  63 NW17      30.03R
CEDAR ISLAND   NOT AVBL
JACKSONVILLE   CLOUDY    46  33  60 N9        30.05R
PINEY ISLAND     N/A    N/A N/A N/A NW12G22   30.03R
WILMINGTON     MOCLDY    50  36  58 N10       30.05R


$$

NCZ011>013-027>030-043-044-078>080-089-090>093-098-160300-
COASTAL PLAIN

CITY           SKY/WX    TMP DP  RH WIND       PRES   REMARKS
AHOSKIE        PTCLDY    34  26  72 CALM      30.05R
CLINTON        PTCLDY    42  32  66 N6        30.07R
ELIZABETHTOWN  NOT AVBL
GOLDSBORO      PTCLDY    40  29  63 CALM      30.04R
GREENVILLE     PTCLDY    39  28  65 NW3       30.08R
HAVELOCK       CLOUDY    46  32  58 N15       30.05
KENANSVILLE    CLOUDY    43  30  61 NW3       30.07R
KINSTON        NOT AVBL
NEW BERN       PTCLDY    43  31  62 NW5       30.06R
RICHLANDS      CLOUDY    44  31  60 VRB3      30.07R
ROCKY MOUNT    CLEAR     34  28  79 CALM      30.06R
WASHINGTON     MOCLDY    41  28  59 NW6       30.05R
WHITEVILLE     CLOUDY    48  33  55 CALM      30.06R

$$

AMZ130-135-150-152-154-156-158-170-250-252-270-ANZ085-086-088-633-658-670-160300-
MARINE OBSERVATIONS

STATION/POSITION TIME  TEMP    WIND        PRES    WAVE   SWELL
                       AIR SEA DIR/SP/G            HT/PER HT/PER
                 (UTC) (F)     (DEG/KT/KT) (MB)    (FT/S) (FT/S)
CHESAPEAKE LIGHT NOT AVBL
64 E VA BEACH    0150   43 59  310/ 27/ 33 1014.4    8/ 6
DUCK             0142   40 53  300/ 17/ 21 1015.6
2 E DUCK         0130      54                N/A     3/ 5
OREGON INLET     0142   42 48  300/ 16/ 23 1015.7
13E OREGON INLT  0148      63                N/A     6/ 5   2/11
HATTERAS CG      0142   47 55  320/ 23/ 25 1015.6
DIAMOND BUOY     0150   52 73  320/ 25/ 31 1015.3    6/ 7   2/10
CAPE LOOKOUT     0200          330/ 20/ 24 1016.7
BEAUFORT LAB     0142   48 51  340/ 11/ 14 1016.4
30 SE NEW RVR IN 0108   60 65  260/ 17/ 23 1015.0
30 SE NEW RVR IN 0130      65                N/A     5/ 6
27 SE WRIGHTSVLE 0108   59 64  270/ 21/ 29 1015.6
5 SE WRIGHTSVLE  0108   56 56  280/ 10/ 16 1015.2
225 S CAPE HAT   0150   73 75  250/ 23/ 29 1015.3    7/ 6   2/11
41 SE CHARLESTON 0150   62 72  270/ 21/ 27 1017.1    5/ 5

$$




USA.gov is the U.S. government's official web portal to all federal, state and local government web resources and services.